Weather History for PHTO - January, 2013

Change the Weather History Date:

Friday, January 18, 2013

  Actual Average Record
Temperature  
Mean Temperature 71 °F 71 °F  
Max Temperature 79 °F 79 °F 88 °F (1974)
Min Temperature 62 °F 64 °F 58 °F (2009)
Degree Days  
Heating Degree Days 0 0  
Month to date heating degree days 0 0  
Since 1 July heating degree days 0 0  
Cooling Degree Days 6 6  
Month to date cooling degree days 120 119  
Year to date cooling degree days 120 119  
Growing Degree Days 20 (Base 50)    
Moisture  
Dew Point 60 °F    
Average Humidity 72    
Maximum Humidity 84    
Minimum Humidity 60    
Precipitation  
Precipitation 0.00 in 0.28 in 5.08 in (2002)
Month to date precipitation 7.66 4.98  
Year to date precipitation 7.66 4.98  
Snow  
Snow 0.00 in - - ()
Month to date snowfall 0.0  
Since 1 July snowfall 0.0  
Snow Depth 0.00 in    
Sea Level Pressure  
Sea Level Pressure 29.88 in    
Wind  
Wind Speed 8 mph (NW)    
Max Wind Speed 18 mph    
Max Gust Speed 22 mph    
Visibility 10 miles    
Events      
T = Trace of Precipitation, MM = Missing Value Source: NWS Daily Summary

Daily Weather History Graph

Daily Weather History Graph

Search for Another Location

Airport or City:

Trip Planner

Search our weather history database for the weather conditions in past years. The results will help you decide how hot, cold, wet, or windy it might be!

Date:

Astronomy

Jan. 18, 2013 Rise Set
Actual Time 6:57 AM HST 6:04 PM HST
Civil Twilight 6:34 AM HST 6:27 PM HST
Nautical Twilight 6:07 AM HST 6:54 PM HST
Astronomical Twilight 5:40 AM HST 7:21 PM HST
Moon 11:49 AM HST (1/18) 12:01 AM HST (1/18)
Length of Visible Light 11h 53m
Length of Day
11h 06m
Waxing Crescent, 49% of the Moon is Illuminated
Jan 18
Waxing Crescent
Jan 18
First Quarter
Jan 26
Full
Feb 3
Last Quarter
Feb 9
New

Hourly Weather History & Observations

Time (HST) Temp. Dew Point Humidity Pressure Visibility Wind Dir Wind Speed Gust Speed Precip Events Conditions
12:53 AM 68.0 °F 61.0 °F 78% 29.87 in 10.0 mi SW 3.5 mph - N/A   Overcast
1:53 AM 68.0 °F 61.0 °F 78% 29.86 in 10.0 mi SW 4.6 mph - N/A   Overcast
2:53 AM 66.9 °F 60.1 °F 79% 29.86 in 10.0 mi SW 4.6 mph - N/A   Overcast
3:53 AM 64.9 °F 59.0 °F 81% 29.85 in 10.0 mi SSW 5.8 mph - N/A   Partly Cloudy
4:53 AM 64.0 °F 59.0 °F 84% 29.86 in 10.0 mi SW 5.8 mph - N/A   Overcast
5:53 AM 63.0 °F 57.0 °F 81% 29.87 in 10.0 mi SW 5.8 mph - N/A   Scattered Clouds
6:53 AM 62.1 °F 55.9 °F 80% 29.88 in 10.0 mi SW 5.8 mph - N/A   Partly Cloudy
7:53 AM 64.0 °F 57.0 °F 78% 29.91 in 10.0 mi WSW 6.9 mph - N/A   Scattered Clouds
8:53 AM 70.0 °F 59.0 °F 68% 29.93 in 10.0 mi SW 4.6 mph - N/A   Scattered Clouds
9:53 AM 75.0 °F 63.0 °F 66% 29.94 in 10.0 mi NNE 8.1 mph - N/A   Scattered Clouds
10:53 AM 75.9 °F 63.0 °F 64% 29.93 in 10.0 mi North 11.5 mph - N/A   Scattered Clouds
11:53 AM 77.0 °F 63.0 °F 62% 29.90 in 10.0 mi North 12.7 mph - N/A   Scattered Clouds
12:53 PM 75.9 °F 64.9 °F 69% 29.87 in 10.0 mi North 11.5 mph - N/A   Scattered Clouds
1:53 PM 78.1 °F 64.0 °F 62% 29.84 in 10.0 mi NNE 13.8 mph - N/A   Scattered Clouds
2:53 PM 77.0 °F 63.0 °F 62% 29.83 in 10.0 mi North 10.4 mph - N/A   Scattered Clouds
3:53 PM 75.0 °F 60.1 °F 60% 29.83 in 10.0 mi North 12.7 mph - N/A   Mostly Cloudy
4:53 PM 73.9 °F 60.1 °F 62% 29.83 in 10.0 mi North 11.5 mph - N/A   Mostly Cloudy
5:53 PM 73.0 °F 60.1 °F 64% 29.85 in 10.0 mi North 10.4 mph - N/A   Overcast
6:53 PM 73.0 °F 60.1 °F 64% 29.87 in 10.0 mi NNW 9.2 mph - N/A   Overcast
7:53 PM 72.0 °F 60.1 °F 66% 29.89 in 10.0 mi NW 6.9 mph - N/A   Mostly Cloudy
8:53 PM 71.1 °F 60.1 °F 68% 29.91 in 10.0 mi WNW 4.6 mph - N/A   Mostly Cloudy
9:53 PM 70.0 °F 61.0 °F 73% 29.92 in 10.0 mi North 12.7 mph - N/A   Scattered Clouds
10:53 PM 70.0 °F 60.1 °F 71% 29.91 in 10.0 mi NNW 12.7 mph - N/A   Mostly Cloudy
11:53 PM 66.9 °F 59.0 °F 76% 29.91 in 10.0 mi SW 5.8 mph - N/A   Partly Cloudy